Findlay, OH

4:18 AM EDT on July 25, 2017 (GMT -0400)
Findlay

Weather History for KFDY - August, 2012

Change the Weather History Date:

Thursday, August 30, 2012

  Actual Average Record
Temperature  
Mean Temperature 73 °F -  
Max Temperature 82 °F 80 °F 99 °F (1953)
Min Temperature 64 °F 59 °F 44 °F (1976)
Cooling Degree Days 8    
Growing Degree Days 23 (Base 50)    
Moisture  
Dew Point 59 °F    
Average Humidity 56    
Maximum Humidity 78    
Minimum Humidity 39    
Precipitation  
Precipitation 0.00 in - - ()
Sea Level Pressure  
Sea Level Pressure 30.08 in    
Wind  
Wind Speed 4 mph (South)    
Max Wind Speed 9 mph    
Max Gust Speed -    
Visibility 10 miles    
Events      
Averages and records for this station are not official NWS values.
T = Trace of Precipitation, MM = Missing Value Source: NWS Daily Summary

Daily Weather History Graph

Daily Weather History Graph

Search for Another Location

Airport or City:

Trip Planner

Search our weather history database for the weather conditions in past years. The results will help you decide how hot, cold, wet, or windy it might be!

Date:

Astronomy

Aug. 30, 2012 Rise Set
Actual Time 6:59 AM EDT 8:09 PM EDT
Civil Twilight 6:31 AM EDT 8:37 PM EDT
Nautical Twilight 5:57 AM EDT 9:11 PM EDT
Astronomical Twilight 5:22 AM EDT 9:47 PM EDT
Moon 7:23 PM EDT (8/30) 5:59 AM EDT (8/30)
Length of Visible Light 14h 06m
Length of Day
13h 09m
Waxing Gibbous, 99% of the Moon is Illuminated
Aug 30
Waxing Gibbous
Aug 31
Full
Sep 8
Last Quarter
Sep 15
New
Sep 22
First Quarter

Hourly Weather History & Observations

Time (EDT) Temp. Heat Index Dew Point Humidity Pressure Visibility Wind Dir Wind Speed Gust Speed Precip Events Conditions
12:53 AM - - - N/A% 30.09 in 10.0 mi Calm Calm - N/A   Clear
1:53 AM - - - N/A% 30.07 in 10.0 mi SSE 5.8 mph - N/A   Clear
2:53 AM - - - N/A% 30.07 in 10.0 mi SSE 5.8 mph - N/A   Clear
3:53 AM - - - N/A% 30.07 in 10.0 mi SSE 5.8 mph - N/A   Clear
4:53 AM - - - N/A% 30.07 in 10.0 mi Calm Calm - N/A   Clear
5:53 AM - - - N/A% 30.08 in 10.0 mi SE 3.5 mph - N/A   Clear
6:53 AM - - - N/A% 30.10 in 10.0 mi Calm Calm - N/A   Clear
7:53 AM - - - N/A% 30.11 in 8.0 mi South 4.6 mph - N/A   Clear
8:53 AM - - - N/A% 30.13 in 10.0 mi South 5.8 mph - N/A   Clear
9:53 AM - - - N/A% 30.14 in 10.0 mi South 4.6 mph - N/A   Clear
10:53 AM - - - N/A% 30.14 in 10.0 mi South 6.9 mph - N/A   Clear
11:53 AM - - - N/A% 30.13 in 10.0 mi SSW 8.1 mph - N/A   Clear
12:53 PM 78.1 °F - 57.0 °F 48% 30.12 in 10.0 mi SW 5.8 mph - N/A   Clear
1:53 PM 80.1 °F 80.1 °F 55.0 °F 42% 30.11 in 10.0 mi WSW 5.8 mph - N/A   Clear
2:53 PM 82.0 °F 81.7 °F 57.0 °F 42% 30.09 in 10.0 mi SSW 4.6 mph - N/A   Clear
3:53 PM 82.9 °F 82.1 °F 55.9 °F 39% 30.06 in 10.0 mi SSW 4.6 mph - N/A   Clear
4:53 PM 82.9 °F 82.4 °F 57.0 °F 41% 30.05 in 10.0 mi Calm Calm - N/A   Clear
5:53 PM 82.0 °F 82.4 °F 60.1 °F 47% 30.04 in 10.0 mi SSW 4.6 mph - N/A   Clear
6:53 PM 80.1 °F 81.9 °F 64.9 °F 60% 30.04 in 10.0 mi SSW 3.5 mph - N/A   Clear
7:53 PM 78.1 °F - 62.1 °F 58% 30.03 in 10.0 mi South 3.5 mph - N/A   Clear
8:53 PM 72.0 °F - 60.1 °F 66% 30.04 in 10.0 mi SE 5.8 mph - N/A   Clear
9:53 PM 66.9 °F - 59.0 °F 76% 30.05 in 10.0 mi SSE 3.5 mph - N/A   Clear
10:53 PM 64.0 °F - 57.0 °F 78% 30.05 in 10.0 mi South 6.9 mph - N/A   Clear
11:53 PM 64.9 °F - 57.0 °F 75% 30.06 in 10.0 mi South 9.2 mph - N/A   Clear